QTR59N OTHH-OMDB

Flight info

Callsign QTR59N
Flight time 1h 12m
Altitude 26000
Route DATRI L564 BAT DCT KUTNA DCT RIBOT M550 GOLGU DCT UKRAG G783 ASPED Q308 KIPOK DCT IMPED
Aircraft B77W/H-SDE1E2E3FGHIJ2J3J4J5M1RWXY/LB1D1

Departure

Time 2026-05-06 13:01
Airport Hamad International Airport (OTHH)

Arrival

Time 2026-05-06 14:13
Airport Dubai International Airport (OMDB)
Time Latitude Longitude Altitude Speed Heading
2026-05-06 12:33 25.27033 51.60950 20 ft 0 kts 159°
2026-05-06 12:50 25.27040 51.60947 20 ft 2 kts 159°
2026-05-06 12:50 25.27054 51.60941 20 ft 2 kts 158°
2026-05-06 12:50 25.27068 51.60934 20 ft 2 kts 158°
2026-05-06 12:51 25.27077 51.60931 20 ft 2 kts 158°
2026-05-06 12:51 25.27091 51.60923 21 ft 2 kts 140°
2026-05-06 12:51 25.27101 51.60910 21 ft 2 kts 123°
2026-05-06 12:51 25.27108 51.60896 21 ft 2 kts 109°
2026-05-06 12:52 25.27111 51.60879 22 ft 2 kts 93°
2026-05-06 12:52 25.27110 51.60862 22 ft 2 kts 78°
2026-05-06 12:52 25.27107 51.60851 22 ft 1 kts 68°
2026-05-06 12:52 25.27107 51.60850 22 ft 0 kts 67°
2026-05-06 12:54 25.27107 51.60851 22 ft 0 kts 67°
2026-05-06 12:54 25.27111 51.60860 22 ft 3 kts 68°
2026-05-06 12:54 25.27126 51.60900 21 ft 7 kts 68°
2026-05-06 12:54 25.27155 51.60980 19 ft 14 kts 68°
2026-05-06 12:55 25.27205 51.61087 18 ft 14 kts 34°
2026-05-06 12:55 25.27286 51.61124 17 ft 14 kts 44°
2026-05-06 12:55 25.27329 51.61224 15 ft 14 kts 68°
2026-05-06 12:55 25.27366 51.61322 15 ft 13 kts 68°
2026-05-06 12:56 25.27401 51.61412 15 ft 12 kts 68°
2026-05-06 12:56 25.27424 51.61497 15 ft 10 kts 95°
2026-05-06 12:56 25.27376 51.61556 15 ft 10 kts 152°
2026-05-06 12:56 25.27310 51.61590 15 ft 10 kts 159°
2026-05-06 12:57 25.27244 51.61618 15 ft 9 kts 158°
2026-05-06 12:57 25.27183 51.61646 15 ft 9 kts 158°
2026-05-06 12:57 25.27118 51.61674 15 ft 10 kts 158°
2026-05-06 12:57 25.27039 51.61709 15 ft 14 kts 159°
2026-05-06 12:58 25.26932 51.61755 15 ft 19 kts 158°
2026-05-06 12:58 25.26777 51.61825 15 ft 26 kts 158°
2026-05-06 12:58 25.26579 51.61912 15 ft 33 kts 156°
2026-05-06 12:58 25.26339 51.62017 16 ft 35 kts 158°
2026-05-06 12:59 25.26109 51.62119 15 ft 34 kts 158°
2026-05-06 12:59 25.25885 51.62217 15 ft 33 kts 158°
2026-05-06 12:59 25.25671 51.62311 15 ft 28 kts 158°
2026-05-06 12:59 25.25508 51.62386 15 ft 18 kts 140°
2026-05-06 13:00 25.25504 51.62514 15 ft 16 kts 66°
2026-05-06 13:00 25.25561 51.62618 15 ft 14 kts 40°
2026-05-06 13:00 25.25653 51.62626 15 ft 14 kts 344°
2026-05-06 13:00 25.25882 51.62526 15 ft 70 kts 340°
2026-05-06 13:01 25.26587 51.62221 16 ft 143 kts 337°
2026-05-06 13:01 25.27697 51.61724 224 ft 186 kts 341°
2026-05-06 13:01 25.28979 51.61424 1003 ft 187 kts
2026-05-06 13:01 25.30156 51.61908 1972 ft 185 kts 41°
2026-05-06 13:02 25.30845 51.63100 2775 ft 189 kts 77°
2026-05-06 13:02 25.30734 51.64601 3243 ft 209 kts 113°
2026-05-06 13:02 25.29750 51.65870 3778 ft 230 kts 145°
2026-05-06 13:02 25.28239 51.66721 4381 ft 247 kts 152°
2026-05-06 13:03 25.26597 51.67551 5077 ft 261 kts 153°
2026-05-06 13:03 25.24867 51.68410 5787 ft 275 kts 153°
2026-05-06 13:03 25.23061 51.69311 6656 ft 283 kts 153°
2026-05-06 13:03 25.21202 51.70247 7526 ft 290 kts 153°
2026-05-06 13:04 25.19279 51.71217 8379 ft 297 kts 153°
2026-05-06 13:04 25.17367 51.72193 9236 ft 302 kts 153°
2026-05-06 13:04 25.15401 51.73115 10049 ft 309 kts 164°
2026-05-06 13:04 25.13141 51.73266 10693 ft 326 kts 189°
2026-05-06 13:05 25.10835 51.72547 11255 ft 343 kts 199°
2026-05-06 13:05 25.08439 51.71613 11902 ft 360 kts 200°
2026-05-06 13:05 25.06040 51.70664 12562 ft 374 kts 200°
2026-05-06 13:05 25.03512 51.69663 13457 ft 383 kts 200°
2026-05-06 13:06 25.01122 51.68717 14477 ft 385 kts 200°
2026-05-06 13:06 24.98607 51.67722 15694 ft 386 kts 200°
2026-05-06 13:06 24.96153 51.66752 16725 ft 389 kts 199°
2026-05-06 13:06 24.93514 51.65709 17590 ft 396 kts 199°
2026-05-06 13:07 24.90850 51.64658 17919 ft 400 kts 199°
2026-05-06 13:07 24.88209 51.63615 17930 ft 399 kts 200°
2026-05-06 13:07 24.85517 51.62552 17949 ft 399 kts 199°
2026-05-06 13:07 24.82912 51.61525 17949 ft 397 kts 199°
2026-05-06 13:08 24.80283 51.60489 17925 ft 398 kts 199°
2026-05-06 13:08 24.77581 51.59423 17940 ft 399 kts 200°
2026-05-06 13:08 24.74934 51.58380 17916 ft 399 kts 199°
2026-05-06 13:08 24.72187 51.57300 17771 ft 397 kts 199°
2026-05-06 13:09 24.69462 51.56477 17774 ft 398 kts 192°
2026-05-06 13:09 24.66636 51.55804 17771 ft 398 kts 192°
2026-05-06 13:09 24.63869 51.55152 17766 ft 398 kts 192°
2026-05-06 13:09 24.61085 51.54497 17778 ft 399 kts 192°
2026-05-06 13:10 24.58315 51.53844 17754 ft 399 kts 192°
2026-05-06 13:10 24.55502 51.53181 17761 ft 400 kts 192°
2026-05-06 13:10 24.52759 51.52534 17774 ft 400 kts 192°
2026-05-06 13:10 24.49956 51.51873 17781 ft 400 kts 192°
2026-05-06 13:11 24.47194 51.51222 17753 ft 399 kts 192°
2026-05-06 13:11 24.44384 51.50560 17758 ft 399 kts 192°
2026-05-06 13:11 24.41570 51.49897 17787 ft 407 kts 192°
2026-05-06 13:11 24.38679 51.49217 18557 ft 415 kts 192°
2026-05-06 13:12 24.35788 51.48537 19960 ft 407 kts 193°
2026-05-06 13:12 24.32955 51.47871 21110 ft 405 kts 193°
2026-05-06 13:12 24.30089 51.47196 22003 ft 409 kts 194°
2026-05-06 13:12 24.27172 51.46510 22810 ft 416 kts 194°
2026-05-06 13:13 24.24273 51.45829 23654 ft 420 kts 194°
2026-05-06 13:13 24.21313 51.45292 24524 ft 425 kts 187°
2026-05-06 13:13 24.18247 51.45202 25335 ft 429 kts 183°
2026-05-06 13:13 24.15190 51.45221 25718 ft 430 kts 182°
2026-05-06 13:14 24.12082 51.45246 25757 ft 429 kts 182°
2026-05-06 13:14 24.09016 51.45270 25762 ft 427 kts 183°
2026-05-06 13:14 24.05977 51.45292 25758 ft 427 kts 182°
2026-05-06 13:14 24.02881 51.45314 25758 ft 427 kts 182°
2026-05-06 13:15 23.99852 51.45335 25758 ft 428 kts 182°
2026-05-06 13:15 23.96808 51.45356 25757 ft 428 kts 182°
2026-05-06 13:15 23.93714 51.45376 25757 ft 427 kts 182°
2026-05-06 13:15 23.90639 51.45396 25758 ft 428 kts 182°
2026-05-06 13:16 23.87534 51.45417 25759 ft 428 kts 182°
2026-05-06 13:16 23.84467 51.45437 25752 ft 427 kts 182°
2026-05-06 13:16 23.81383 51.45457 25753 ft 427 kts 182°
2026-05-06 13:16 23.78362 51.45477 25752 ft 427 kts 182°
2026-05-06 13:17 23.75259 51.45497 25746 ft 426 kts 182°
2026-05-06 13:17 23.72192 51.45516 25742 ft 428 kts 182°
2026-05-06 13:17 23.69171 51.45536 25739 ft 427 kts 182°
2026-05-06 13:17 23.66124 51.45555 25738 ft 427 kts 182°
2026-05-06 13:18 23.63040 51.45575 25736 ft 427 kts 182°
2026-05-06 13:18 23.60081 51.45594 25737 ft 428 kts 182°
2026-05-06 13:18 23.57051 51.45614 25736 ft 428 kts 182°
2026-05-06 13:18 23.54116 51.45633 25733 ft 428 kts 182°
2026-05-06 13:19 23.51244 51.45651 25737 ft 428 kts 182°
2026-05-06 13:19 23.48172 51.45671 25739 ft 428 kts 182°
2026-05-06 13:19 23.45102 51.45690 25735 ft 428 kts 182°
2026-05-06 13:19 23.42022 51.45710 25736 ft 428 kts 182°
2026-05-06 13:20 23.38985 51.45731 25733 ft 428 kts 181°
2026-05-06 13:20 23.35916 51.46051 25735 ft 432 kts 172°
2026-05-06 13:20 23.33126 51.46861 25730 ft 433 kts 162°
2026-05-06 13:20 23.30472 51.48157 25722 ft 435 kts 153°
2026-05-06 13:21 23.27948 51.49979 25725 ft 441 kts 143°
2026-05-06 13:21 23.25800 51.52161 25723 ft 442 kts 134°
2026-05-06 13:21 23.23904 51.54869 25725 ft 444 kts 124°
2026-05-06 13:21 23.22470 51.57883 25725 ft 447 kts 114°
2026-05-06 13:22 23.21527 51.61169 25724 ft 449 kts 103°
2026-05-06 13:22 23.21093 51.64565 25732 ft 450 kts 96°
2026-05-06 13:22 23.20825 51.68035 25733 ft 450 kts 96°
2026-05-06 13:22 23.20559 51.71493 25739 ft 452 kts 96°
2026-05-06 13:23 23.20288 51.74909 25739 ft 452 kts 96°
2026-05-06 13:23 23.20025 51.78136 25739 ft 452 kts 96°
2026-05-06 13:23 23.19738 51.81608 25737 ft 452 kts 96°
2026-05-06 13:23 23.19441 51.85140 25739 ft 452 kts 96°
2026-05-06 13:24 23.19145 51.88625 25734 ft 451 kts 96°
2026-05-06 13:24 23.18848 51.92108 25740 ft 451 kts 96°
2026-05-06 13:24 23.18542 51.95650 25743 ft 451 kts 96°
2026-05-06 13:24 23.18242 51.99118 25742 ft 451 kts 96°
2026-05-06 13:25 23.17936 52.02640 25742 ft 451 kts 96°
2026-05-06 13:25 23.17633 52.06110 25743 ft 450 kts 96°
2026-05-06 13:25 23.17335 52.09510 25740 ft 451 kts 96°
2026-05-06 13:25 23.17029 52.12987 25742 ft 451 kts 96°
2026-05-06 13:26 23.16727 52.16413 25743 ft 451 kts 96°
2026-05-06 13:26 23.16416 52.19931 25744 ft 450 kts 96°
2026-05-06 13:26 23.16110 52.23384 25741 ft 450 kts 96°
2026-05-06 13:26 23.15797 52.26904 25735 ft 451 kts 96°
2026-05-06 13:27 23.15480 52.30455 25738 ft 451 kts 96°
2026-05-06 13:27 23.15167 52.33957 25737 ft 451 kts 96°
2026-05-06 13:27 23.14881 52.37503 25724 ft 451 kts 92°
2026-05-06 13:27 23.15027 52.40996 25728 ft 453 kts 82°
2026-05-06 13:28 23.15733 52.44441 25729 ft 453 kts 73°
2026-05-06 13:28 23.16772 52.47824 25735 ft 454 kts 71°
2026-05-06 13:28 23.17791 52.51165 25733 ft 453 kts 75°
2026-05-06 13:28 23.18414 52.54627 25745 ft 452 kts 82°
2026-05-06 13:29 23.18868 52.58137 25744 ft 453 kts 82°
2026-05-06 13:29 23.19313 52.61675 25750 ft 452 kts 82°
2026-05-06 13:29 23.19758 52.65222 25750 ft 452 kts 83°
2026-05-06 13:29 23.20195 52.68716 25749 ft 452 kts 83°
2026-05-06 13:30 23.20629 52.72189 25750 ft 452 kts 83°
2026-05-06 13:30 23.21070 52.75730 25757 ft 452 kts 83°
2026-05-06 13:30 23.21505 52.79223 25756 ft 453 kts 83°
2026-05-06 13:30 23.21937 52.82698 25757 ft 452 kts 83°
2026-05-06 13:31 23.22375 52.86233 25758 ft 452 kts 83°
2026-05-06 13:31 23.22808 52.89730 25760 ft 452 kts 83°
2026-05-06 13:31 23.23240 52.93226 25763 ft 452 kts 83°
2026-05-06 13:31 23.23675 52.96755 25765 ft 452 kts 83°
2026-05-06 13:32 23.24104 53.00233 25766 ft 453 kts 83°
2026-05-06 13:32 23.24543 53.03808 25764 ft 453 kts 83°
2026-05-06 13:32 23.24973 53.07310 25766 ft 453 kts 83°
2026-05-06 13:32 23.25404 53.10833 25765 ft 453 kts 83°
2026-05-06 13:33 23.25840 53.14398 25765 ft 452 kts 83°
2026-05-06 13:33 23.26269 53.17915 25769 ft 452 kts 83°
2026-05-06 13:33 23.26704 53.21486 25769 ft 453 kts 83°
2026-05-06 13:33 23.27125 53.24955 25769 ft 452 kts 83°
2026-05-06 13:34 23.27556 53.28509 25766 ft 452 kts 83°
2026-05-06 13:34 23.27978 53.31992 25766 ft 452 kts 83°
2026-05-06 13:34 23.28399 53.35478 25764 ft 453 kts 83°
2026-05-06 13:34 23.28823 53.38995 25766 ft 453 kts 83°
2026-05-06 13:35 23.29245 53.42497 25767 ft 453 kts 83°
2026-05-06 13:35 23.29668 53.46022 25764 ft 453 kts 83°
2026-05-06 13:35 23.30084 53.49491 25762 ft 453 kts 83°
2026-05-06 13:35 23.30506 53.53011 25760 ft 454 kts 83°
2026-05-06 13:36 23.30925 53.56519 25758 ft 453 kts 83°
2026-05-06 13:36 23.31324 53.59868 25758 ft 453 kts 83°
2026-05-06 13:36 23.31725 53.63242 25761 ft 452 kts 83°
2026-05-06 13:36 23.32133 53.66671 25765 ft 452 kts 83°
2026-05-06 13:37 23.32545 53.70149 25767 ft 452 kts 83°
2026-05-06 13:37 23.32960 53.73652 25769 ft 453 kts 83°
2026-05-06 13:37 23.33376 53.77179 25768 ft 452 kts 83°
2026-05-06 13:37 23.33793 53.80718 25772 ft 452 kts 83°
2026-05-06 13:38 23.34202 53.84196 25771 ft 453 kts 83°
2026-05-06 13:38 23.34613 53.87688 25765 ft 452 kts 83°
2026-05-06 13:38 23.35027 53.91225 25765 ft 453 kts 83°
2026-05-06 13:38 23.35431 53.94679 25762 ft 453 kts 83°
2026-05-06 13:39 23.35846 53.98232 25760 ft 452 kts 83°
2026-05-06 13:39 23.36256 54.01756 25760 ft 452 kts 83°
2026-05-06 13:39 23.36658 54.05215 25759 ft 452 kts 83°
2026-05-06 13:39 23.37060 54.08675 25760 ft 451 kts 83°
2026-05-06 13:40 23.37461 54.12140 25760 ft 453 kts 83°
2026-05-06 13:40 23.37867 54.15655 25757 ft 452 kts 83°
2026-05-06 13:40 23.38274 54.19185 25759 ft 451 kts 83°
2026-05-06 13:40 23.38679 54.22704 25760 ft 451 kts 83°
2026-05-06 13:41 23.39082 54.26213 25758 ft 452 kts 83°
2026-05-06 13:41 23.39485 54.29727 25761 ft 452 kts 83°
2026-05-06 13:41 23.39894 54.33297 25763 ft 452 kts 83°
2026-05-06 13:41 23.40296 54.36819 25761 ft 452 kts 83°
2026-05-06 13:42 23.40701 54.40370 25767 ft 452 kts 83°
2026-05-06 13:42 23.41101 54.43892 25770 ft 451 kts 83°
2026-05-06 13:42 23.41500 54.47403 25775 ft 451 kts 83°
2026-05-06 13:42 23.41905 54.50979 25777 ft 452 kts 83°
2026-05-06 13:43 23.42306 54.54527 25779 ft 452 kts 83°
2026-05-06 13:43 23.42706 54.58081 25775 ft 451 kts 83°
2026-05-06 13:43 23.43099 54.61565 25778 ft 452 kts 83°
2026-05-06 13:43 23.43501 54.65148 25776 ft 452 kts 83°
2026-05-06 13:44 23.43895 54.68658 25773 ft 452 kts 83°
2026-05-06 13:44 23.44297 54.72257 25775 ft 452 kts 83°
2026-05-06 13:44 23.44698 54.75844 25772 ft 451 kts 83°
2026-05-06 13:44 23.45087 54.79343 25773 ft 452 kts 83°
2026-05-06 13:45 23.45479 54.82870 25769 ft 451 kts 83°
2026-05-06 13:45 23.46259 54.89903 25762 ft 450 kts 83°
2026-05-06 13:45 23.46647 54.93419 25764 ft 451 kts 83°
2026-05-06 13:46 23.47029 54.96882 25764 ft 451 kts 83°
2026-05-06 13:46 23.47424 55.00470 25766 ft 451 kts 83°
2026-05-06 13:46 23.47808 55.03966 25768 ft 452 kts 83°
2026-05-06 13:46 23.48194 55.07490 25765 ft 451 kts 83°
2026-05-06 13:47 23.48581 55.11033 25766 ft 451 kts 83°
2026-05-06 13:47 23.48970 55.14595 25770 ft 451 kts 83°
2026-05-06 13:47 23.49357 55.18156 25767 ft 451 kts 83°
2026-05-06 13:47 23.49740 55.21684 25769 ft 451 kts 83°
2026-05-06 13:48 23.50127 55.25237 25772 ft 451 kts 83°
2026-05-06 13:48 23.50806 55.28754 25775 ft 451 kts 72°
2026-05-06 13:48 23.52030 55.32052 25780 ft 451 kts 62°
2026-05-06 13:48 23.53737 55.35025 25782 ft 449 kts 51°
2026-05-06 13:49 23.55940 55.37682 25780 ft 447 kts 41°
2026-05-06 13:49 23.58490 55.39852 25656 ft 439 kts 31°
2026-05-06 13:49 23.61280 55.41512 25098 ft 438 kts 22°
2026-05-06 13:49 23.64334 55.42666 24252 ft 443 kts 13°
2026-05-06 13:50 23.67471 55.43507 23430 ft 446 kts 12°
2026-05-06 13:50 23.70687 55.44374 22592 ft 448 kts 13°
2026-05-06 13:50 23.73705 55.45210 21918 ft 446 kts 13°
2026-05-06 13:50 23.76793 55.46083 21468 ft 439 kts 14°
2026-05-06 13:51 23.79811 55.46948 21010 ft 432 kts 14°
2026-05-06 13:51 23.82790 55.47811 20468 ft 428 kts 15°
2026-05-06 13:51 23.85748 55.48674 19878 ft 425 kts 15°
2026-05-06 13:51 23.88650 55.49524 19336 ft 421 kts 15°
2026-05-06 13:52 23.91585 55.50387 18798 ft 416 kts 15°
2026-05-06 13:52 23.94425 55.51225 18262 ft 412 kts 16°
2026-05-06 13:52 23.97304 55.52084 17701 ft 407 kts 18°
2026-05-06 13:52 24.00002 55.53233 17144 ft 402 kts 27°
2026-05-06 13:53 24.02488 55.54841 16585 ft 396 kts 37°
2026-05-06 13:53 24.04672 55.56795 16002 ft 393 kts 43°
2026-05-06 13:53 24.06784 55.58879 15447 ft 389 kts 43°
2026-05-06 13:53 24.08818 55.60896 14907 ft 386 kts 43°
2026-05-06 13:54 24.10830 55.62891 14371 ft 382 kts 43°
2026-05-06 13:54 24.12828 55.64872 13828 ft 380 kts 43°
2026-05-06 13:54 24.14830 55.66857 13284 ft 377 kts 43°
2026-05-06 13:54 24.16796 55.68809 12759 ft 373 kts 43°
2026-05-06 13:55 24.18771 55.70769 12213 ft 371 kts 43°
2026-05-06 13:55 24.20714 55.72698 11653 ft 369 kts 43°
2026-05-06 13:55 24.22678 55.74648 11075 ft 368 kts 43°
2026-05-06 13:55 24.24624 55.76582 10501 ft 367 kts 43°
2026-05-06 13:56 24.26572 55.78519 9928 ft 366 kts 43°
2026-05-06 13:56 24.28505 55.80441 9377 ft 364 kts 43°
2026-05-06 13:56 24.30449 55.82375 8814 ft 363 kts 43°
2026-05-06 13:56 24.32393 55.84310 8284 ft 361 kts 43°
2026-05-06 13:57 24.34330 55.86239 7779 ft 359 kts 43°
2026-05-06 13:57 24.36237 55.88138 7327 ft 355 kts 43°
2026-05-06 13:57 24.38100 55.89994 6880 ft 351 kts 43°
2026-05-06 13:57 24.39964 55.91852 6377 ft 349 kts 43°
2026-05-06 13:58 24.41804 55.93686 6152 ft 346 kts 43°
2026-05-06 13:58 24.43669 55.95546 6130 ft 347 kts 43°
2026-05-06 13:58 24.45523 55.97396 6125 ft 347 kts 43°
2026-05-06 13:58 24.47361 55.99230 6128 ft 349 kts 43°
2026-05-06 13:59 24.49250 56.01117 6137 ft 348 kts 43°
2026-05-06 13:59 24.51102 56.02967 6151 ft 348 kts 43°
2026-05-06 13:59 24.52969 56.04833 6156 ft 347 kts 43°
2026-05-06 13:59 24.54853 56.06718 6153 ft 346 kts 43°
2026-05-06 14:00 24.56712 56.08548 6156 ft 348 kts 39°
2026-05-06 14:00 24.58833 56.10058 6162 ft 349 kts 27°
2026-05-06 14:00 24.61141 56.11038 6160 ft 346 kts 15°
2026-05-06 14:00 24.63599 56.11484 6155 ft 347 kts
2026-05-06 14:01 24.66081 56.11380 6154 ft 347 kts 354°
2026-05-06 14:01 24.68574 56.11024 6161 ft 347 kts 353°
2026-05-06 14:01 24.71050 56.10656 6149 ft 347 kts 353°
2026-05-06 14:01 24.73561 56.10287 6146 ft 347 kts 353°
2026-05-06 14:02 24.76042 56.09926 6143 ft 346 kts 353°
2026-05-06 14:02 24.78523 56.09566 6144 ft 347 kts 353°
2026-05-06 14:02 24.81010 56.09205 6137 ft 346 kts 353°
2026-05-06 14:02 24.83471 56.08849 6135 ft 346 kts 353°
2026-05-06 14:03 24.85886 56.08152 6124 ft 347 kts 337°
2026-05-06 14:03 24.87991 56.06714 6121 ft 348 kts 320°
2026-05-06 14:03 24.89623 56.04636 6121 ft 348 kts 303°
2026-05-06 14:03 24.90877 56.02253 6123 ft 349 kts 300°
2026-05-06 14:04 24.92096 55.99829 6120 ft 348 kts 300°
2026-05-06 14:04 24.93304 55.97418 6110 ft 349 kts 300°
2026-05-06 14:04 24.94496 55.95039 6105 ft 349 kts 300°
2026-05-06 14:04 24.95708 55.92619 6102 ft 350 kts 300°
2026-05-06 14:05 24.96906 55.90223 6082 ft 350 kts 300°
2026-05-06 14:05 24.98137 55.87763 6078 ft 350 kts 300°
2026-05-06 14:05 24.99351 55.85332 6012 ft 346 kts 300°
2026-05-06 14:05 25.00543 55.82947 5682 ft 340 kts 300°
2026-05-06 14:06 25.01706 55.80617 5523 ft 328 kts 300°
2026-05-06 14:06 25.02834 55.78355 5290 ft 319 kts 300°
2026-05-06 14:06 25.03927 55.76164 5067 ft 311 kts 300°
2026-05-06 14:06 25.04988 55.74036 4824 ft 304 kts 300°
2026-05-06 14:07 25.06113 55.71972 4595 ft 297 kts 304°
2026-05-06 14:07 25.07247 55.70006 4364 ft 291 kts 303°
2026-05-06 14:07 25.08330 55.68066 4128 ft 286 kts 302°
2026-05-06 14:07 25.09364 55.66119 3828 ft 274 kts 300°
2026-05-06 14:08 25.10268 55.64267 3560 ft 266 kts 298°
2026-05-06 14:08 25.11123 55.62456 3257 ft 261 kts 298°
2026-05-06 14:08 25.11954 55.60715 2961 ft 256 kts 298°
2026-05-06 14:08 25.12796 55.58995 2647 ft 248 kts 300°
2026-05-06 14:09 25.13650 55.57313 2341 ft 240 kts 301°
2026-05-06 14:09 25.14502 55.55705 2080 ft 231 kts 302°
2026-05-06 14:09 25.15325 55.54207 2029 ft 212 kts 303°
2026-05-06 14:09 25.16099 55.52843 2022 ft 199 kts 303°
2026-05-06 14:10 25.16842 55.51539 2022 ft 191 kts 303°
2026-05-06 14:10 25.17547 55.50290 2023 ft 187 kts 304°
2026-05-06 14:10 25.18243 55.49051 1926 ft 189 kts 303°
2026-05-06 14:10 25.18937 55.47809 1701 ft 183 kts 304°
2026-05-06 14:11 25.19609 55.46605 1484 ft 175 kts 304°
2026-05-06 14:11 25.20184 55.45576 1293 ft 163 kts 304°
2026-05-06 14:11 25.20783 55.44504 1083 ft 151 kts 304°
2026-05-06 14:11 25.21330 55.43524 849 ft 145 kts 304°
2026-05-06 14:12 25.21855 55.42587 604 ft 140 kts 306°
2026-05-06 14:12 25.22376 55.41683 438 ft 140 kts 303°
2026-05-06 14:12 25.22883 55.40749 275 ft 138 kts 304°
2026-05-06 14:12 25.23398 55.39831 143 ft 137 kts 304°
2026-05-06 14:13 25.23906 55.38921 64 ft 136 kts 304°
2026-05-06 14:13 25.24333 55.38160 59 ft 100 kts 301°
2026-05-06 14:13 25.24669 55.37545 55 ft 73 kts 302°
2026-05-06 14:13 25.24781 55.37198 53 ft 25 kts 273°
2026-05-06 14:14 25.24787 55.37074 52 ft 14 kts 272°
2026-05-06 14:14 25.24801 55.36960 51 ft 14 kts 290°
2026-05-06 14:14 25.24840 55.36863 52 ft 13 kts 294°
2026-05-06 14:14 25.24866 55.36755 52 ft 15 kts 283°
2026-05-06 14:15 25.24907 55.36640 51 ft 16 kts 299°
2026-05-06 14:15 25.24973 55.36514 48 ft 22 kts 301°
2026-05-06 14:15 25.25065 55.36350 40 ft 28 kts 302°
2026-05-06 14:15 25.25165 55.36170 45 ft 27 kts 303°
2026-05-06 14:16 25.25266 55.35990 41 ft 28 kts 303°
2026-05-06 14:16 25.25360 55.35821 42 ft 25 kts 301°
2026-05-06 14:16 25.25447 55.35658 39 ft 25 kts 302°
2026-05-06 14:16 25.25541 55.35489 35 ft 26 kts 302°
2026-05-06 14:17 25.25626 55.35338 38 ft 23 kts 301°
2026-05-06 14:17 25.25693 55.35216 37 ft 15 kts 302°
2026-05-06 14:17 25.25724 55.35161 36 ft 8 kts 302°
2026-05-06 14:17 25.25759 55.35096 36 ft 10 kts 300°
2026-05-06 14:18 25.25805 55.35008 36 ft 16 kts 301°
2026-05-06 14:18 25.25874 55.34884 36 ft 22 kts 301°
2026-05-06 14:18 25.25963 55.34723 34 ft 26 kts 302°
2026-05-06 14:18 25.26063 55.34542 33 ft 27 kts 301°
2026-05-06 14:19 25.26159 55.34369 31 ft 26 kts 302°
2026-05-06 14:19 25.26222 55.34257 30 ft 9 kts 301°
2026-05-06 14:19 25.26246 55.34211 30 ft 8 kts 300°
2026-05-06 14:19 25.26234 55.34159 30 ft 8 kts 214°
2026-05-06 14:20 25.26170 55.34142 30 ft 10 kts 190°
2026-05-06 14:20 25.26111 55.34130 30 ft 4 kts 189°
2026-05-06 14:20 25.26089 55.34127 30 ft 1 kts 189°
2026-05-06 14:20 25.26085 55.34126 30 ft 0 kts 189°
2026-05-06 14:21 25.26084 55.34126 30 ft 0 kts 189°